Date,TemperatureHighF,TemperatureAvgF,TemperatureLowF,DewpointHighF,DewpointAvgF,DewpointLowF,HumidityHigh,HumidityAvg,HumidityLow,PressureMaxIn,PressureMinIn,WindSpeedMaxMPH,WindSpeedAvgMPH,GustSpeedMaxMPH,PrecipitationSumIn
2013-1-1,27,19,11,19,13,8,88,78,65,30.21,30.09,20,4,26,0.00
2013-1-2,32,21,2,16,8,-4,83,59,37,30.31,30.18,19,7,25,0.00
2013-1-3,24,12,4,10,5,0,85,72,53,30.31,30.18,9,3,11,0.00
2013-1-4,25,12,4,10,4,-3,82,71,50,30.18,30.07,9,2,11,0.00
2013-1-5,25,12,1,13,5,-4,87,74,59,30.29,30.14,7,2,14,0.00
2013-1-6,31,18,10,16,11,6,83,73,50,30.16,29.88,9,2,12,0.00
2013-1-7,29,21,7,19,13,3,85,72,63,29.94,29.70,9,2,10,0.00
2013-1-8,40,31,22,25,20,15,76,64,49,30.07,29.71,7,2,14,0.00
2013-1-9,39,33,25,28,22,16,75,65,56,30.10,29.75,12,4,20,0.00
2013-1-10,44,33,19,28,23,15,88,68,50,29.75,29.41,37,11,48,0.00
2013-1-11,19,10,7,15,5,1,86,79,67,30.00,29.46,41,30,50,0.00
2013-1-12,9,6,0,3,2,-4,85,81,71,30.07,29.99,19,5,23,0.00
2013-1-13,9,3,-8,4,-2,-12,85,82,77,30.14,30.06,7,2,8,0.00
2013-1-14,12,5,-5,7,0,-9,85,77,67,30.15,30.01,10,4,14,0.00
2013-1-15,19,14,10,15,11,7,88,86,83,30.20,30.06,9,4,13,0.00
2013-1-16,23,13,5,16,9,1,89,83,70,30.35,30.18,6,0,9,0.00
2013-1-17,27,14,6,17,10,3,91,82,63,30.40,30.15,7,1,10,0.00
2013-1-18,33,22,11,19,14,7,86,71,56,30.15,29.97,8,2,11,0.00
2013-1-19,34,22,11,19,14,7,85,72,52,30.22,30.05,9,2,11,0.00
2013-1-20,30,22,8,21,16,4,90,75,61,30.32,30.14,31,11,37,0.00
2013-1-21,30,19,12,21,14,9,90,83,67,30.24,30.01,7,1,12,0.00
2013-1-22,31,19,9,20,14,6,90,79,62,30.11,30.02,8,1,11,0.00
2013-1-23,28,22,15,20,16,9,85,75,66,30.11,29.97,7,1,10,0.00
2013-1-24,45,31,21,29,21,15,80,65,53,30.09,29.90,10,2,19,0.00
2013-1-25,43,35,25,28,24,18,76,65,53,30.09,29.95,10,3,14,0.00
2013-1-26,42,35,27,29,25,21,80,68,57,29.95,29.70,9,3,12,0.00
2013-1-27,37,32,28,31,28,24,92,84,69,29.76,29.67,31,17,38,0.00
2013-1-28,35,27,18,24,18,13,90,71,45,29.79,29.72,23,7,30,0.00
2013-1-29,27,17,3,22,12,-1,90,81,60,30.04,29.68,28,8,37,0.02
2013-1-30,20,16,7,18,13,3,91,86,77,29.98,29.85,8,2,11,0.02
2013-1-31,24,20,15,21,17,12,90,88,86,30.13,30.03,8,2,11,0.00
2013-2-1,32,23,14,27,20,11,92,88,77,30.23,29.99,7,1,9,0.09
2013-2-2,26,17,6,24,14,3,93,89,85,30.34,30.22,7,1,9,0.01
2013-2-3,30,18,9,22,14,6,93,85,67,30.22,29.94,8,1,11,0.01
2013-2-4,35,24,13,24,18,10,91,79,61,29.94,29.81,7,2,10,0.02
2013-2-5,37,25,14,25,19,10,88,77,62,29.95,29.75,9,2,11,0.01
2013-2-6,42,30,15,28,22,11,88,73,45,30.06,29.76,18,4,33,0.00
2013-2-7,35,25,13,24,18,10,92,77,59,30.08,29.88,6,2,10,0.00
2013-2-8,39,26,14,25,19,10,89,75,51,29.90,29.78,10,2,12,0.00
2013-2-9,35,28,18,26,22,13,87,79,69,29.84,29.70,22,7,27,0.00
2013-2-10,29,24,11,26,18,7,92,79,66,30.07,29.79,30,18,38,0.00
2013-2-11,23,13,-2,15,7,-6,88,79,65,30.08,29.96,9,3,11,0.00
2013-2-12,27,18,6,14,9,2,86,71,55,30.08,29.96,7,2,10,0.00
2013-2-13,36,27,17,28,18,10,86,68,55,30.03,29.91,11,3,15,0.00
2013-2-14,32,25,23,27,21,18,98,85,67,30.30,30.02,28,9,36,0.00
2013-2-15,28,22,14,24,20,11,92,89,80,30.35,30.19,8,2,12,0.07
2013-2-16,35,24,12,23,17,9,91,78,59,30.20,29.81,8,2,10,0.01
2013-2-17,37,31,19,30,22,15,89,72,52,29.91,29.65,34,14,43,0.01
2013-2-18,32,25,18,24,20,14,88,78,59,30.04,29.91,20,10,27,0.01
2013-2-19,34,21,11,19,14,8,90,75,47,29.97,29.68,15,4,18,0.00
2013-2-20,29,22,13,22,17,9,92,79,69,29.80,29.68,20,14,25,0.00
2013-2-21,27,20,13,21,16,10,96,84,74,29.90,29.80,10,2,12,0.00
2013-2-22,28,21,10,21,16,7,91,79,62,29.94,29.70,11,4,16,0.00
2013-2-23,32,28,23,27,19,13,90,70,57,29.89,29.61,27,9,33,0.01
2013-2-24,37,27,21,24,18,15,90,70,40,30.10,29.89,26,10,32,0.01
2013-2-25,32,26,17,19,16,10,73,63,53,30.03,29.79,10,4,14,0.00
2013-2-26,37,30,17,20,17,12,82,59,38,30.17,29.86,22,10,27,0.00
2013-2-27,32,24,11,21,16,7,88,71,58,30.22,30.17,10,3,11,0.00
2013-2-28,34,27,18,22,17,11,75,66,51,30.27,30.18,6,2,9,0.00
2013-3-1,41,32,22,27,22,15,78,67,52,30.31,30.23,9,2,13,0.00
2013-3-2,44,37,27,31,28,22,86,71,58,30.27,29.89,7,2,11,0.00
2013-3-3,50,38,30,35,28,13,85,66,43,29.89,29.52,42,11,59,0.01
2013-3-4,31,24,15,18,13,9,88,63,47,30.26,29.81,33,19,42,0.01
2013-3-5,34,24,10,19,14,6,92,66,49,30.26,29.99,11,4,16,0.00
2013-3-6,48,34,20,31,22,14,80,62,41,29.99,29.66,11,3,16,0.00
2013-3-7,50,41,33,29,20,14,76,44,25,29.96,29.75,17,4,31,0.00
2013-3-8,46,37,30,29,26,24,84,66,44,29.95,29.78,21,14,29,0.00
2013-3-9,42,37,32,26,19,-100,74,53,35,30.17,29.83,327,16,327,0.00
2013-3-10,46,35,21,26,22,16,83,60,39,30.20,29.97,13,3,15,0.00
2013-3-11,45,38,29,27,22,14,70,54,40,30.22,29.95,28,15,41,0.00
2013-3-12,43,31,18,22,19,14,89,62,38,30.26,30.09,15,6,22,0.00
2013-3-13,63,46,33,31,26,20,61,46,26,30.15,30.08,16,4,22,0.00
2013-3-14,64,52,40,33,30,25,63,44,26,30.18,29.96,12,3,18,0.00
2013-3-15,65,53,36,30,26,17,66,37,17,29.97,29.85,26,8,36,0.00
2013-3-16,55,42,32,32,28,25,81,58,31,29.98,29.66,14,5,19,0.00
2013-3-17,41,35,27,31,24,10,95,68,34,29.83,29.42,32,13,44,0.01
2013-3-18,37,29,23,17,14,10,71,56,32,29.89,29.81,18,7,24,0.01
2013-3-19,39,33,25,21,16,12,79,49,34,30.21,30.08,26,10,34,0.00
2013-3-20,52,36,23,22,17,13,74,47,25,30.19,29.59,9,3,13,0.00
2013-3-21,42,37,31,32,22,13,92,57,31,29.85,29.53,33,15,41,0.01
2013-3-22,35,28,17,22,13,9,77,52,33,30.04,29.82,29,15,37,0.01
2013-3-23,30,24,17,14,8,-1,80,54,27,30.18,30.04,22,13,31,0.00
2013-3-24,32,22,11,12,8,5,82,54,32,30.20,30.15,25,12,37,0.00
2013-3-25,42,26,8,12,7,2,80,49,21,30.22,30.02,14,6,21,0.00
2013-3-26,52,35,23,15,11,6,61,37,22,30.03,29.89,7,2,13,0.00
2013-3-27,58,40,21,27,19,10,70,44,23,30.01,29.93,11,4,19,0.00
2013-3-28,61,45,25,28,23,18,78,46,25,30.09,29.98,9,5,18,0.00
2013-3-29,59,45,32,40,28,20,86,53,30,30.14,30.02,28,6,39,0.04
2013-3-30,56,46,31,40,29,-100,92,60,25,30.17,30.09,27,10,41,0.06
2013-3-31,59,46,27,31,24,19,79,46,27,30.09,30.01,23,8,33,0.01
2013-4-1,58,43,27,26,20,12,76,44,17,30.11,29.99,12,5,15,0.00
2013-4-2,63,46,27,25,22,17,72,42,21,30.08,29.93,12,6,16,0.00
2013-4-3,63,51,35,29,24,17,58,36,23,30.06,29.96,18,5,28,0.00
2013-4-4,68,54,35,34,30,24,68,43,24,30.06,29.80,16,3,22,0.00
2013-4-5,62,54,43,38,33,27,63,45,36,29.83,29.68,32,10,45,0.00
2013-4-6,61,49,29,35,29,22,77,50,25,29.87,29.73,25,6,37,0.00
2013-4-7,57,46,37,38,34,30,82,62,36,29.79,29.53,26,7,33,0.02
2013-4-8,43,27,20,37,20,10,90,74,61,30.10,29.62,41,27,52,0.01
2013-4-9,28,22,17,14,10,4,80,62,35,30.27,30.10,29,20,39,0.00
2013-4-10,41,26,6,19,12,2,85,60,39,30.24,29.84,11,6,23,0.00
2013-4-11,54,42,26,34,24,16,76,50,31,29.88,29.78,31,11,38,0.00
2013-4-12,49,41,33,34,25,19,88,57,33,30.01,29.75,25,10,35,0.02
2013-4-13,52,39,31,34,27,20,100,65,39,29.75,29.33,36,12,44,0.10
2013-4-14,38,32,27,27,22,17,73,66,55,29.83,29.54,31,20,40,0.02
2013-4-15,31,26,22,19,15,12,75,63,50,30.03,29.79,29,20,36,0.00
2013-4-16,31,26,19,19,16,14,82,66,52,30.15,29.93,22,9,27,0.00
2013-4-17,32,25,20,18,14,12,77,64,47,30.22,30.14,23,14,34,0.00
2013-4-18,48,33,13,23,17,9,92,56,28,30.20,30.06,22,9,32,0.00
2013-4-19,56,44,25,33,25,19,79,50,27,30.07,29.78,14,5,19,0.00
2013-4-20,57,48,35,34,30,25,83,51,30,29.94,29.81,17,7,26,0.00
2013-4-21,48,38,28,34,30,25,91,74,49,30.06,29.94,26,14,36,0.02
2013-4-22,33,28,22,26,19,12,88,67,43,30.32,30.06,25,12,34,0.01
2013-4-23,42,28,11,20,14,7,86,60,33,30.32,30.10,11,5,15,0.00
2013-4-24,54,39,25,29,22,16,85,53,25,30.21,29.98,21,6,33,0.00
2013-4-25,66,50,38,26,21,13,59,35,14,29.98,29.82,16,6,25,0.00
2013-4-26,69,56,36,30,26,23,63,34,19,30.15,29.97,13,6,21,0.00
2013-4-27,73,60,35,32,25,17,64,31,12,30.13,29.86,17,6,25,0.00
2013-4-28,66,57,47,37,31,24,60,38,23,29.99,29.80,25,10,34,0.00
2013-4-29,63,50,39,39,34,26,85,57,25,29.80,29.50,33,11,46,0.10
2013-4-30,45,39,29,28,19,8,83,47,22,30.15,29.72,26,16,36,0.10
2013-5-1,47,36,28,25,18,12,85,51,25,30.58,30.15,16,6,26,0.00
2013-5-2,56,43,29,29,22,16,85,51,21,30.63,30.32,12,5,20,0.00
2013-5-3,62,50,35,38,25,17,68,39,18,30.32,30.08,20,6,26,0.00
2013-5-4,56,50,44,42,39,36,83,68,49,30.21,30.15,20,12,31,0.00
2013-5-5,64,51,37,43,35,27,88,58,29,30.21,30.03,10,4,20,0.00
2013-5-6,73,56,32,35,29,25,77,40,18,30.05,29.88,9,3,13,0.00
2013-5-7,76,60,39,36,29,20,62,35,13,29.95,29.82,17,5,32,0.00
2013-5-8,71,61,49,39,33,28,60,37,20,30.11,29.95,27,14,34,0.00
2013-5-9,73,58,38,39,33,22,72,43,15,30.16,30.07,21,10,28,0.00
2013-5-10,71,57,38,41,34,-100,76,46,18,30.34,30.14,35,8,45,0.00
2013-5-11,75,58,38,40,30,-100,58,38,23,30.37,30.12,18,5,22,0.00
2013-5-12,85,69,50,39,35,31,53,31,15,30.16,29.98,20,5,28,0.00
2013-5-13,88,75,60,43,35,25,44,26,10,30.08,29.80,19,6,30,0.00
2013-5-14,81,70,58,45,39,30,56,33,17,29.94,29.79,26,9,36,0.00
2013-5-15,76,64,51,41,31,24,45,30,19,30.00,29.80,27,10,34,0.00
2013-5-16,69,56,52,50,29,-100,88,60,38,29.88,29.78,33,8,41,0.14
2013-5-17,62,54,48,52,46,-100,92,84,63,29.88,29.78,23,10,33,0.23
2013-5-18,57,52,48,50,48,45,95,87,66,29.93,29.86,22,14,28,0.14
2013-5-19,50,48,47,47,45,42,92,89,81,30.03,29.91,33,22,43,0.12
2013-5-20,60,52,46,49,43,28,92,72,32,30.14,30.02,27,18,39,0.14
2013-5-21,69,54,36,39,33,23,89,50,20,30.12,29.86,15,4,21,0.01
2013-5-22,70,54,42,49,42,36,93,67,29,29.91,29.76,28,11,37,0.01
2013-5-23,74,57,47,51,48,43,93,73,35,29.87,29.64,35,12,48,0.12
2013-5-24,71,59,49,52,35,20,91,48,17,29.97,29.73,20,9,31,0.19
2013-5-25,78,61,40,43,37,26,85,46,15,29.93,29.79,30,10,36,0.01
2013-5-26,73,62,50,49,43,38,71,52,29,29.96,29.80,22,9,27,0.00
2013-5-27,66,58,49,52,43,34,94,61,30,29.89,29.78,26,10,39,0.01
2013-5-28,70,58,44,48,41,34,81,56,26,29.80,29.63,24,5,32,0.01
2013-5-29,54,51,48,48,46,45,91,84,76,29.70,29.64,27,20,35,0.24
2013-5-30,56,52,48,47,44,39,89,75,56,29.81,29.64,30,18,40,0.02
2013-5-31,57,50,46,44,39,35,88,67,46,30.22,29.81,35,21,50,0.04
2013-6-1,66,56,44,43,41,38,88,59,35,30.27,30.08,18,6,26,0.01
2013-6-2,78,64,50,51,42,34,81,48,20,30.08,29.62,29,5,38,0.00
2013-6-3,65,56,49,52,38,29,86,55,26,30.03,29.68,32,18,43,0.00
2013-6-4,55,49,43,39,36,34,73,60,52,30.26,30.03,26,16,33,0.00
2013-6-5,71,55,35,41,36,29,89,53,23,30.26,30.03,8,3,14,0.00
2013-6-6,77,63,42,47,41,35,75,46,29,30.09,30.01,14,4,25,0.00
2013-6-7,81,66,47,51,46,42,83,52,27,30.04,29.70,16,4,25,0.00
2013-6-8,75,67,56,52,41,32,74,42,21,29.97,29.78,27,14,34,0.02
2013-6-9,89,69,47,48,42,37,78,44,16,29.99,29.71,17,8,25,0.00
2013-6-10,82,69,56,52,47,42,67,47,25,29.88,29.75,35,13,41,0.00
2013-6-11,78,66,53,58,51,44,86,61,30,30.03,29.77,39,9,54,0.00
2013-6-12,60,55,51,54,52,49,93,88,77,30.10,29.98,20,5,31,0.01
2013-6-13,84,72,53,58,49,40,87,49,22,29.98,29.74,39,12,54,0.17
2013-6-14,66,58,45,48,39,22,84,52,19,30.09,29.92,30,10,43,0.02
2013-6-15,76,64,43,41,33,26,71,35,16,30.12,29.96,10,4,26,0.00
2013-6-16,79,66,48,45,40,34,72,42,21,30.11,30.01,18,8,25,0.00
2013-6-17,82,69,53,51,45,39,78,46,22,30.16,29.98,18,6,24,0.00
2013-6-18,86,72,56,51,45,37,62,40,20,30.02,29.78,15,4,31,0.05
2013-6-19,90,74,63,50,40,25,50,32,10,29.81,29.47,21,8,41,0.01
2013-6-20,74,62,56,30,24,19,29,23,14,29.93,29.75,36,12,47,0.00
2013-6-22,68,62,52,50,45,39,73,56,38,30.02,29.90,29,11,39,0.00
2013-6-23,78,62,38,46,40,33,88,51,22,30.02,29.74,12,5,19,0.00
2013-6-24,85,69,49,50,42,34,72,43,17,29.75,29.61,25,8,38,0.00
2013-6-25,80,73,63,47,40,34,56,32,20,29.92,29.68,21,11,34,0.00
2013-6-26,86,76,64,53,45,39,57,34,20,30.09,29.90,22,10,34,0.00
2013-6-27,78,65,53,55,50,47,81,61,39,30.21,30.09,20,8,29,0.00
2013-6-28,87,84,69,57,50,47,52,32,26,30.28,30.17,21,11,27,0.00
2013-6-29,90,75,60,58,51,42,79,47,19,30.24,30.05,27,9,49,0.00
2013-6-30,89,75,55,58,54,48,89,53,26,30.19,30.09,18,6,27,0.00
2013-7-1,88,76,60,58,52,46,75,45,25,30.24,30.16,18,9,26,0.00
2013-7-2,91,77,59,56,48,39,70,41,17,30.22,30.03,16,8,22,0.00
2013-7-3,92,80,58,55,46,41,71,34,19,30.04,29.90,27,10,35,0.02
2013-7-4,91,75,64,62,54,46,89,53,24,29.98,29.83,27,7,45,0.68
2013-7-5,78,69,62,61,57,-100,91,69,43,29.92,29.81,25,6,42,0.76
2013-7-6,83,75,65,57,53,51,64,48,34,29.99,29.86,15,4,33,0.00
2013-7-7,84,69,59,59,53,46,82,59,32,30.03,29.88,32,5,47,0.05
2013-7-8,88,70,61,58,52,-100,84,58,24,30.04,29.90,22,6,34,0.01
2013-7-9,83,72,60,58,52,46,90,53,30,30.18,30.03,26,13,33,0.01
2013-7-10,92,72,54,54,44,-100,79,44,13,30.16,29.94,11,5,21,0.00
2013-7-11,94,80,68,54,47,39,46,32,17,29.94,29.77,28,7,37,0.00
2013-7-12,83,73,62,61,54,44,85,55,29,29.99,29.88,14,4,20,0.06
2013-7-13,88,73,54,57,48,41,74,45,20,30.14,29.92,33,8,48,0.00
2013-7-14,85,70,55,57,52,46,81,55,26,30.25,30.05,21,8,28,0.00
2013-7-15,93,78,60,59,49,36,70,41,14,30.09,29.90,10,4,15,0.00
2013-7-16,74,65,60,53,50,42,77,59,33,30.22,29.96,34,20,46,0.00
2013-7-17,88,69,57,62,56,51,83,66,33,30.23,30.05,23,7,32,0.06
2013-7-18,88,76,61,61,53,33,85,49,21,30.16,30.06,18,6,27,0.06
2013-7-19,89,75,56,49,43,35,66,34,17,30.15,29.97,19,8,28,0.00
2013-7-20,88,77,65,48,41,37,42,29,19,30.03,29.89,17,9,27,0.00
2013-7-21,90,76,52,46,36,28,66,27,11,29.92,29.85,19,9,27,0.00
2013-7-22,91,76,53,48,38,25,60,29,12,29.99,29.86,20,7,27,0.00
2013-7-23,89,78,64,48,41,27,41,28,11,30.13,29.98,18,9,23,0.00
2013-7-24,90,75,56,54,48,39,69,42,18,30.15,29.96,11,5,13,0.00
2013-7-25,75,67,60,54,50,39,70,55,30,30.18,29.97,36,20,50,0.00
2013-7-26,87,78,61,53,48,40,68,37,20,30.25,30.06,19,6,25,0.00
2013-7-27,87,74,60,53,46,35,64,41,16,30.08,29.90,19,8,29,0.00
2013-7-28,81,72,65,55,49,45,59,45,31,29.94,29.85,20,5,28,0.00
2013-7-29,77,65,52,56,51,46,82,62,39,30.05,29.93,20,8,26,0.02
2013-7-30,81,67,55,58,52,45,89,62,28,30.26,30.05,21,4,35,0.05
2013-7-31,84,69,51,57,51,42,93,60,25,30.30,30.12,14,5,24,0.04
2013-8-1,86,74,62,59,52,47,82,49,28,30.16,29.82,33,7,45,0.05
2013-8-2,84,68,56,58,53,45,92,63,26,30.03,29.86,34,13,46,0.01
2013-8-3,80,68,59,60,57,50,92,69,37,30.15,30.00,23,12,29,0.00
2013-8-4,84,71,57,59,54,46,89,59,28,30.13,29.98,24,10,30,0.00
2013-8-5,88,72,58,58,52,40,82,52,22,30.07,29.89,30,9,41,0.00
2013-8-6,82,72,61,49,44,39,60,39,22,30.08,29.95,23,11,28,0.00
2013-8-7,85,71,50,48,43,37,67,40,21,30.08,29.94,20,7,28,0.00
2013-8-8,84,71,52,52,48,43,80,48,26,30.09,30.00,18,6,25,0.00
2013-8-9,75,67,56,57,52,48,80,61,39,30.18,30.08,19,8,26,0.00
2013-8-10,84,67,49,56,48,39,89,55,22,30.15,30.06,23,6,36,0.00
2013-8-11,86,69,51,49,42,37,66,40,19,30.15,30.06,17,6,27,0.00
2013-8-12,88,70,52,49,41,34,57,38,17,30.13,30.05,16,3,22,0.00
2013-8-13,84,68,52,52,46,-100,76,50,25,30.23,30.11,24,7,36,0.02
2013-8-14,85,68,53,52,44,-100,77,47,19,30.19,30.02,16,3,24,0.02
2013-8-15,92,64,51,49,30,-100,75,39,17,30.14,30.02,13,5,14,0.00
2013-8-16,95,76,58,50,38,-100,53,30,12,30.10,29.96,8,2,13,0.00
2013-8-17,93,76,55,48,37,-100,40,26,15,30.06,29.94,12,4,18,0.00
2013-8-18,88,75,59,49,44,40,52,34,19,30.07,29.98,25,10,32,0.00
2013-8-19,93,72,55,53,34,-100,60,34,17,30.07,29.91,11,4,14,0.00
2013-8-20,90,74,61,47,37,-100,44,29,15,30.03,29.91,11,5,15,0.00
2013-8-21,87,76,67,49,43,35,44,32,20,30.13,29.96,25,13,31,0.00
2013-8-22,86,75,61,57,51,47,59,43,29,30.16,29.98,12,5,19,0.00
2013-8-23,88,75,60,56,52,47,77,48,25,30.00,29.85,26,6,36,0.00
2013-8-24,83,73,65,56,49,-100,63,45,30,30.03,29.89,21,5,40,0.00
2013-8-25,87,74,60,53,48,40,67,43,19,30.11,29.96,15,4,22,0.00
2013-8-26,88,77,68,55,48,40,57,37,21,30.08,29.97,28,4,37,0.00
2013-8-27,85,71,60,54,52,49,66,52,30,30.11,30.03,5,1,11,0.00
2013-8-28,89,82,72,58,52,44,51,36,22,30.06,29.94,22,9,31,0.00
2013-8-29,87,72,59,58,51,46,69,49,27,30.17,30.05,13,4,18,0.00
2013-8-30,89,72,58,58,52,43,86,53,24,30.14,29.99,12,2,20,0.00
2013-8-31,82,72,61,49,42,-100,55,37,24,30.14,30.00,26,12,32,0.00
2013-9-1,89,69,49,46,41,35,65,39,16,30.14,29.99,11,5,13,0.00
2013-9-2,82,70,53,56,46,33,60,42,28,30.03,29.96,13,4,21,0.00
2013-9-3,88,75,58,60,52,47,73,47,25,30.10,30.00,12,3,18,0.00
2013-9-4,89,73,62,62,58,47,91,61,31,30.19,30.08,14,4,28,0.04
2013-9-5,91,74,59,61,57,51,88,60,29,30.15,29.97,25,5,35,0.06
2013-9-6,87,73,62,61,57,51,87,59,30,30.13,30.01,26,6,39,0.16
2013-9-7,85,71,61,61,55,-100,84,61,32,30.13,29.97,27,5,36,0.08
2013-9-8,74,66,60,62,57,52,91,74,50,30.07,29.90,13,5,23,0.05
2013-9-9,74,66,58,54,46,43,79,52,34,30.05,29.93,19,10,26,0.01
2013-9-10,79,65,51,50,46,43,80,53,31,30.16,30.05,11,4,16,0.00
2013-9-11,82,66,50,48,44,42,75,48,25,30.27,30.15,15,6,23,0.00
2013-9-12,74,65,50,54,49,44,82,57,41,30.30,30.13,14,5,21,0.00
2013-9-13,71,63,56,59,55,50,93,75,56,30.13,29.90,14,4,20,0.13
2013-9-14,62,59,57,58,55,-100,93,89,85,30.10,29.91,22,12,28,0.68
2013-9-15,69,62,55,59,56,52,91,80,67,30.19,30.09,17,7,23,0.02
2013-9-16,77,66,55,59,54,50,84,66,47,30.09,29.88,12,5,18,0.00
2013-9-17,75,65,56,56,52,45,86,64,36,29.93,29.68,20,6,28,0.09
2013-9-18,56,55,53,52,51,50,92,88,83,29.77,29.72,12,2,20,0.09
2013-9-19,61,55,43,41,39,37,82,57,43,30.18,30.08,16,8,23,0.01
2013-9-20,71,59,42,44,39,33,84,50,26,30.17,29.88,10,4,19,0.00
2013-9-21,80,63,47,47,36,-100,62,39,21,29.88,29.63,10,3,15,0.00
2013-9-22,74,64,56,47,40,34,62,43,31,29.66,29.54,23,5,30,0.00
2013-9-23,68,61,54,44,38,32,64,44,26,29.94,29.65,24,9,32,0.00
2013-9-24,74,61,48,41,36,33,63,40,24,29.99,29.67,22,7,33,0.00
2013-9-25,55,49,46,46,41,-100,92,79,51,29.73,29.63,17,8,23,0.45
2013-9-26,49,45,39,45,38,34,93,78,61,29.96,29.71,22,14,29,0.01
2013-9-27,43,40,38,38,36,34,92,87,73,30.01,29.91,20,9,26,0.05
2013-9-28,63,46,35,44,36,-100,93,71,37,30.02,29.93,18,6,29,0.01
2013-9-29,66,60,48,45,39,35,77,48,32,29.94,29.63,29,6,55,0.00
2013-9-30,71,55,48,46,40,31,69,57,31,29.84,29.60,28,9,42,0.03
2013-10-1,65,56,51,39,37,33,63,49,32,29.90,29.86,9,6,13,0.02
2013-10-2,58,51,43,37,34,32,67,54,40,30.08,29.90,29,11,40,0.00
2013-10-3,45,37,32,43,35,31,96,92,86,30.15,29.84,38,19,48,0.28
2013-10-4,37,34,31,32,30,27,94,84,75,30.41,30.15,31,18,47,0.05
2013-10-5,47,36,25,36,30,22,92,78,59,30.34,30.26,11,4,15,0.00
2013-10-6,60,45,32,41,34,28,89,67,42,30.30,30.13,10,3,14,0.00
2013-10-7,64,50,36,44,39,33,89,69,43,30.13,29.77,9,2,13,0.00
2013-10-8,59,49,43,41,38,34,81,65,49,29.91,29.73,25,9,38,0.00
2013-10-9,51,42,35,42,36,32,93,79,61,30.03,29.91,15,5,20,0.00
2013-10-10,51,44,35,45,40,33,93,85,69,29.91,29.67,16,4,22,0.18
2013-10-11,48,43,33,42,34,26,85,72,42,30.06,29.70,30,14,41,0.18
2013-10-12,52,39,28,36,29,-100,93,73,43,30.10,30.03,14,4,18,0.00
2013-10-13,42,38,35,36,34,32,92,83,72,30.14,30.05,28,16,36,0.06
2013-10-14,37,36,34,34,33,32,93,90,82,30.37,30.05,31,21,41,0.06
2013-10-15,47,38,32,34,30,25,89,73,44,30.37,30.17,14,5,20,0.00
2013-10-16,48,38,27,34,29,24,90,71,48,30.17,30.02,21,5,28,0.00
2013-10-17,41,36,31,35,32,29,93,84,67,30.18,30.10,22,8,31,0.02
2013-10-18,47,39,33,33,30,27,92,71,49,30.20,30.06,21,6,28,0.01
2013-10-19,54,42,29,40,30,-100,85,65,45,30.06,29.90,20,2,30,0.02
2013-10-20,51,44,37,39,36,32,90,72,48,30.09,29.96,19,10,26,0.11
2013-10-21,56,44,35,40,36,31,88,74,47,30.14,30.09,8,2,12,0.01
2013-10-22,61,44,31,40,35,28,92,73,42,30.19,30.08,10,4,14,0.00
2013-10-23,59,45,30,40,35,27,90,70,36,30.21,30.13,12,6,14,0.00
2013-10-24,56,42,32,42,36,30,96,80,54,30.26,30.16,11,4,14,0.00
2013-10-25,65,51,33,41,36,30,92,61,30,30.26,30.16,15,5,22,0.01
2013-10-26,62,46,29,39,32,-100,89,63,38,30.29,30.04,10,3,13,0.01
2013-10-27,63,48,35,38,32,25,81,56,27,30.04,29.79,31,6,44,0.00
2013-10-28,35,28,23,30,24,-100,91,88,81,30.08,29.93,34,23,44,0.00
2013-10-29,34,27,22,28,24,20,93,87,75,30.06,29.88,15,4,20,0.00
2013-10-30,46,36,26,36,31,24,92,84,68,29.88,29.79,9,2,13,0.00
2013-10-31,49,38,26,37,32,24,95,80,56,29.94,29.76,18,4,28,0.07
2013-11-1,53,43,35,30,27,24,72,54,32,30.15,29.94,23,8,31,0.01
2013-11-2,54,42,30,31,26,-100,81,57,37,30.13,29.59,13,4,21,0.00
2013-11-3,44,39,31,35,24,15,75,55,32,29.88,29.57,25,14,37,0.01
2013-11-4,41,31,23,25,21,16,92,69,39,30.05,29.88,18,5,25,0.00
2013-11-5,39,28,16,28,19,14,94,73,46,30.11,30.01,11,4,18,0.00
2013-11-6,47,35,24,25,19,15,74,53,37,30.29,30.06,18,4,24,0.00
2013-11-7,45,36,23,31,25,17,82,63,47,30.30,29.75,9,2,14,0.00
2013-11-8,52,42,32,34,28,21,89,59,29,29.98,29.67,29,6,38,0.02
2013-11-9,46,39,32,29,24,-100,77,58,43,30.19,29.99,15,2,22,0.01
2013-11-10,46,38,28,32,28,24,91,68,53,30.19,30.09,25,4,30,0.00
2013-11-11,36,29,25,29,25,22,93,85,73,30.52,30.18,24,8,30,0.00
2013-11-12,54,40,25,35,29,22,92,69,44,30.53,30.27,9,3,13,0.00
2013-11-13,50,42,35,34,31,28,76,65,50,30.26,30.03,6,1,11,0.00
2013-11-14,47,36,28,31,26,20,78,67,48,30.06,29.70,6,1,7,0.00
2013-11-15,50,36,21,30,22,16,87,60,27,29.70,29.36,10,3,16,0.00
2013-11-16,47,37,32,28,20,-100,85,52,31,29.48,29.22,26,6,37,0.00
2013-11-17,45,34,20,23,16,13,82,50,28,29.96,29.48,21,6,29,0.00
2013-11-18,49,37,28,21,18,15,58,46,32,30.03,29.80,9,3,13,0.00
2013-11-19,56,44,35,30,26,20,64,50,34,29.80,29.60,15,3,24,0.00
2013-11-20,42,25,11,29,17,4,84,72,57,30.26,29.70,35,16,46,0.00
2013-11-21,22,13,7,11,7,2,86,76,60,30.53,30.26,17,8,24,0.00
2013-11-22,26,14,5,11,7,2,87,74,48,30.57,30.49,8,4,10,0.00
2013-11-24,20,18,14,14,-4,-100,83,66,76,30.19,30.11,327,1,327,0.00
2013-11-25,41,27,17,25,19,12,82,71,51,30.36,30.16,5,1,10,0.00
2013-11-26,42,30,19,25,21,14,84,69,50,30.38,30.16,7,2,12,0.00
2013-11-27,50,33,22,27,23,18,85,68,37,30.16,30.03,9,2,14,0.00
2013-11-28,42,29,14,29,22,11,90,77,58,30.13,30.03,10,4,12,0.00
2013-11-29,47,35,23,30,25,20,89,68,47,30.12,30.04,8,2,14,0.00
2013-11-30,47,36,27,29,24,-100,79,65,47,30.16,30.06,8,2,12,0.00
2013-12-1,42,38,31,31,28,24,79,69,59,30.08,29.71,9,2,14,0.00
2013-12-2,55,40,23,36,30,19,91,71,38,29.71,29.41,34,12,44,0.03
2013-12-3,24,11,5,19,6,0,85,80,74,29.98,29.54,39,28,51,0.01
2013-12-4,6,4,0,0,-4,-6,80,71,62,30.11,29.98,25,16,34,0.01
2013-12-5,4,-5,-15,-3,-10,-20,82,78,69,30.16,30.06,9,5,11,0.00
2013-12-6,-7,-11,-15,-12,-16,-20,80,77,74,30.27,30.15,15,11,21,0.00
2013-12-7,-10,-14,-18,-17,-21,-100,77,73,71,30.25,29.94,17,10,22,0.00
2013-12-8,-2,-9,-19,-6,-14,-25,82,78,72,30.08,29.90,8,3,10,0.00
2013-12-9,16,4,-9,7,-3,-14,83,74,63,30.08,30.01,12,6,19,0.00
2013-12-10,25,17,9,20,10,2,89,76,60,30.24,29.95,15,6,18,0.00
2013-12-11,20,13,3,14,8,0,89,80,68,30.27,30.22,8,3,10,0.00
2013-12-12,29,18,11,17,11,6,82,73,61,30.24,29.94,8,4,14,0.00
2013-12-13,34,25,16,26,19,11,87,79,67,30.18,29.91,7,1,12,0.00
2013-12-14,34,27,16,25,19,-100,91,76,64,30.21,30.11,8,2,10,0.00
2013-12-15,38,33,23,26,22,16,77,65,58,30.11,30.01,10,2,15,0.00
2013-12-16,48,38,29,26,23,18,71,54,38,30.22,30.04,22,5,31,0.00
2013-12-17,41,36,25,26,23,19,77,61,49,30.22,29.88,9,3,13,0.00
2013-12-18,47,39,27,28,25,22,92,59,43,29.89,29.66,21,2,29,0.00
2013-12-19,28,13,2,26,8,-3,93,80,64,30.01,29.64,43,19,55,0.00
2013-12-20,20,12,2,12,6,-1,87,78,68,29.93,29.53,10,6,15,0.00
2013-12-21,25,21,18,22,14,-100,90,79,65,29.92,29.52,8,2,12,0.00
2013-12-22,23,16,4,21,13,0,92,87,82,30.22,29.91,26,8,35,0.00
2013-12-23,29,18,2,20,13,-1,88,80,66,30.22,29.90,9,4,13,0.00
2013-12-24,38,32,15,33,23,11,92,69,51,30.29,29.89,27,10,33,0.00
2013-12-25,27,18,9,19,13,4,89,78,66,30.35,30.18,8,2,10,0.00
2013-12-26,32,25,16,20,16,11,81,68,55,30.26,30.16,8,2,11,0.00
2013-12-27,32,25,20,23,18,15,83,75,68,30.22,30.16,7,2,10,0.00
2013-12-30,33,28,19,24,20,14,84,74,66,30.16,29.96,7,2,11,0.00
2013-12-31,38,32,27,33,25,19,89,73,60,30.00,29.86,18,4,25,0.02
2014-1-1,33,29,20,29,25,16,92,86,74,30.28,30.00,23,8,28,0.01
2014-1-2,29,21,12,24,17,9,91,84,70,30.22,29.90,9,2,12,0.00